Time,TemperatureF,DewpointF,PressureIn,WindDirection,WindDirectionDegrees,WindSpeedMPH,WindSpeedGustMPH,Humidity,HourlyPrecipIn,Conditions,Clouds,dailyrainin,SoftwareType,DateUTC
2013-04-05 00:02:00,45.0,42.0,30.06,NNW,332,9.0,12.0,90,0.00,,,0.02,,2013-04-05 05:02:00,
2013-04-05 00:12:00,45.0,42.0,30.06,NNW,332,9.0,12.0,90,0.00,,,0.02,,2013-04-05 05:12:00,
2013-04-05 00:22:00,45.0,42.0,30.07,NNW,330,8.0,11.0,90,0.00,,,0.02,,2013-04-05 05:22:00,
2013-04-05 00:32:00,45.0,42.0,30.07,NW,318,7.0,11.0,90,0.00,,,0.02,,2013-04-05 05:32:00,
2013-04-05 00:42:00,45.0,42.0,30.07,NW,318,7.0,11.0,90,0.00,,,0.02,,2013-04-05 05:42:00,
2013-04-05 00:52:00,45.0,43.0,30.07,WNW,300,6.0,11.0,91,0.00,,,0.02,,2013-04-05 05:52:00,
2013-04-05 01:02:00,45.0,43.0,30.08,NW,313,7.0,13.0,91,0.00,,,0.02,,2013-04-05 06:02:00,
2013-04-05 01:12:00,45.0,43.0,30.08,NW,313,7.0,13.0,91,0.00,,,0.02,,2013-04-05 06:12:00,
2013-04-05 01:22:00,45.0,43.0,30.08,NW,321,6.0,10.0,91,0.00,,,0.02,,2013-04-05 06:22:00,
2013-04-05 01:32:00,45.0,43.0,30.08,NW,313,6.0,10.0,92,0.00,,,0.02,,2013-04-05 06:32:00,
2013-04-05 01:42:00,45.0,43.0,30.08,NW,313,6.0,10.0,92,0.00,,,0.02,,2013-04-05 06:42:00,
2013-04-05 01:52:00,45.0,43.0,30.08,NW,315,7.0,9.0,92,0.00,,,0.02,,2013-04-05 06:52:00,
2013-04-05 02:02:00,45.0,43.0,30.08,NW,315,7.0,9.0,92,0.00,,,0.02,,2013-04-05 07:02:00,
2013-04-05 02:12:00,45.0,43.0,30.08,NW,315,7.0,9.0,92,0.00,,,0.02,,2013-04-05 07:12:00,
2013-04-05 02:22:00,45.0,43.0,30.09,NW,308,6.0,9.0,91,0.00,,,0.02,,2013-04-05 07:22:00,
2013-04-05 02:32:00,45.0,43.0,30.09,NW,321,6.0,11.0,91,0.00,,,0.02,,2013-04-05 07:32:00,
2013-04-05 02:42:00,45.0,43.0,30.09,NW,321,6.0,11.0,91,0.00,,,0.02,,2013-04-05 07:42:00,
2013-04-05 02:52:00,45.0,43.0,30.09,NW,317,6.0,9.0,92,0.00,,,0.01,,2013-04-05 07:52:00,
2013-04-05 03:02:00,45.0,43.0,30.09,NNW,336,7.0,9.0,91,0.00,,,0.01,,2013-04-05 08:02:00,
2013-04-05 03:13:00,45.0,43.0,30.09,NNW,336,7.0,9.0,91,0.00,,,0.01,,2013-04-05 08:13:00,
2013-04-05 03:22:00,45.0,43.0,30.09,NNW,331,6.0,9.0,91,0.00,,,0.01,,2013-04-05 08:22:00,
2013-04-05 03:32:00,45.0,42.0,30.09,NW,321,6.0,9.0,90,0.00,,,0.01,,2013-04-05 08:32:00,
2013-04-05 03:43:00,45.0,42.0,30.09,NW,321,6.0,9.0,90,0.00,,,0.01,,2013-04-05 08:43:00,
2013-04-05 03:52:00,45.0,42.0,30.09,NNW,333,7.0,11.0,90,0.00,,,0.01,,2013-04-05 08:52:00,
2013-04-05 04:02:00,45.0,42.0,30.09,NNW,329,5.0,10.0,90,0.00,,,0.01,,2013-04-05 09:02:00,
2013-04-05 04:12:00,45.0,42.0,30.09,NNW,329,5.0,10.0,90,0.00,,,0.01,,2013-04-05 09:12:00,
2013-04-05 04:22:00,45.0,42.0,30.09,NW,325,5.0,10.0,90,0.00,,,0.01,,2013-04-05 09:22:00,
2013-04-05 04:33:00,44.0,41.0,30.09,NW,315,6.0,9.0,90,0.00,,,0.01,,2013-04-05 09:33:00,
2013-04-05 04:43:00,44.0,41.0,30.09,NW,315,6.0,9.0,90,0.00,,,0.01,,2013-04-05 09:43:00,
2013-04-05 04:52:00,44.0,41.0,30.09,NW,318,4.0,7.0,90,0.00,,,0.01,,2013-04-05 09:52:00,
2013-04-05 05:03:00,44.0,42.0,30.09,NW,309,6.0,9.0,91,0.00,,,0.01,,2013-04-05 10:03:00,
2013-04-05 05:13:00,44.0,42.0,30.09,NW,309,6.0,9.0,91,0.00,,,0.01,,2013-04-05 10:13:00,
2013-04-05 05:23:00,44.0,42.0,30.10,NW,323,6.0,10.0,91,0.00,,,0.01,,2013-04-05 10:23:00,
2013-04-05 05:32:00,43.0,41.0,30.10,NNW,344,5.0,9.0,92,0.00,,,0.01,,2013-04-05 10:32:00,
2013-04-05 05:42:00,43.0,41.0,30.10,NNW,344,5.0,9.0,92,0.00,,,0.01,,2013-04-05 10:42:00,
2013-04-05 05:52:00,43.0,41.0,30.10,NNW,334,5.0,8.0,92,0.00,,,0.01,,2013-04-05 10:52:00,
2013-04-05 06:02:00,43.0,41.0,30.11,NW,320,3.0,6.0,93,0.00,,,0.01,,2013-04-05 11:02:00,
2013-04-05 06:13:00,43.0,41.0,30.11,NW,320,3.0,6.0,93,0.00,,,0.01,,2013-04-05 11:13:00,
2013-04-05 06:22:00,42.0,40.0,30.11,NNW,332,4.0,6.0,93,0.00,,,0.01,,2013-04-05 11:22:00,
2013-04-05 06:33:00,42.0,40.0,30.11,NW,317,3.0,5.0,93,0.00,,,0.01,,2013-04-05 11:33:00,
2013-04-05 06:42:00,42.0,40.0,30.11,NW,317,3.0,5.0,93,0.00,,,0.01,,2013-04-05 11:42:00,
2013-04-05 06:52:00,42.0,40.0,30.12,NNW,329,3.0,5.0,94,0.00,,,0.01,,2013-04-05 11:52:00,
2013-04-05 07:02:00,42.0,40.0,30.12,NNW,336,3.0,4.0,94,0.00,,,0.01,,2013-04-05 12:02:00,
2013-04-05 07:12:00,42.0,40.0,30.12,NNW,336,3.0,4.0,94,0.00,,,0.01,,2013-04-05 12:12:00,
2013-04-05 07:22:00,42.0,41.0,30.13,NNW,345,3.0,5.0,95,0.00,,,0.01,,2013-04-05 12:22:00,
2013-04-05 07:32:00,42.0,41.0,30.14,NNW,331,2.0,6.0,95,0.00,,,0.01,,2013-04-05 12:32:00,
2013-04-05 07:42:00,42.0,41.0,30.14,NNW,331,2.0,6.0,95,0.00,,,0.01,,2013-04-05 12:42:00,
2013-04-05 07:52:00,42.0,41.0,30.14,NNW,347,3.0,5.0,95,0.00,,,0.01,,2013-04-05 12:52:00,
2013-04-05 08:02:00,42.0,41.0,30.15,NNW,327,3.0,5.0,95,0.00,,,0.01,,2013-04-05 13:02:00,
2013-04-05 08:12:00,42.0,41.0,30.15,NNW,327,3.0,5.0,95,0.00,,,0.01,,2013-04-05 13:12:00,
2013-04-05 08:22:00,43.0,42.0,30.16,NW,322,3.0,8.0,95,0.00,,,0.01,,2013-04-05 13:22:00,
2013-04-05 08:32:00,43.0,42.0,30.16,North,355,4.0,6.0,95,0.00,,,0.01,,2013-04-05 13:32:00,
2013-04-05 08:42:00,43.0,42.0,30.16,North,355,4.0,6.0,95,0.00,,,0.01,,2013-04-05 13:42:00,
2013-04-05 08:52:00,43.0,42.0,30.16,North,355,4.0,6.0,95,0.00,,,0.01,,2013-04-05 13:52:00,
2013-04-05 09:03:00,45.0,43.0,30.16,NNW,347,6.0,9.0,91,0.00,,,0.01,,2013-04-05 14:03:00,
2013-04-05 09:12:00,45.0,43.0,30.16,NNW,347,6.0,9.0,91,0.00,,,0.01,,2013-04-05 14:12:00,
2013-04-05 09:23:00,46.0,44.0,30.17,North,355,6.0,8.0,91,0.00,,,0.01,,2013-04-05 14:23:00,
2013-04-05 09:36:00,47.0,44.0,30.18,North,360,6.0,10.0,89,0.00,,,0.01,,2013-04-05 14:36:00,
2013-04-05 09:43:00,47.0,44.0,30.18,North,360,6.0,10.0,89,0.00,,,0.01,,2013-04-05 14:43:00,
2013-04-05 09:52:00,48.0,45.0,30.19,NNW,348,7.0,11.0,90,0.00,,,0.01,,2013-04-05 14:52:00,
2013-04-05 10:02:00,48.0,45.0,30.19,NNW,348,7.0,11.0,90,0.00,,,0.01,,2013-04-05 15:02:00,
2013-04-05 10:12:00,48.0,45.0,30.19,NNW,348,7.0,11.0,90,0.00,,,0.01,,2013-04-05 15:12:00,
2013-04-05 10:23:00,48.0,45.0,30.19,NNW,348,7.0,11.0,90,0.00,,,0.01,,2013-04-05 15:23:00,
2013-04-05 10:43:00,48.0,45.0,30.20,NE,49,6.0,9.0,88,0.00,,,0.01,,2013-04-05 15:43:00,
2013-04-05 10:54:00,49.0,46.0,30.20,NNE,24,3.0,7.0,88,0.00,,,0.00,,2013-04-05 15:54:00,
2013-04-05 11:02:00,49.0,46.0,30.20,NNE,24,3.0,7.0,88,0.00,,,0.00,,2013-04-05 16:02:00,
2013-04-05 11:13:00,49.0,46.0,30.20,NNE,24,3.0,7.0,88,0.00,,,0.00,,2013-04-05 16:13:00,
2013-04-05 11:23:00,50.0,46.0,30.21,NNE,22,2.0,8.0,86,0.00,,,0.00,,2013-04-05 16:23:00,
2013-04-05 11:33:00,51.0,47.0,30.21,NNE,25,5.0,8.0,86,0.00,,,0.00,,2013-04-05 16:33:00,
2013-04-05 11:42:00,51.0,47.0,30.21,NNE,25,5.0,8.0,86,0.00,,,0.00,,2013-04-05 16:42:00,
2013-04-05 11:52:00,51.0,47.0,30.21,NNE,25,5.0,8.0,86,0.00,,,0.00,,2013-04-05 16:52:00,
2013-04-05 12:03:00,53.0,49.0,30.20,NE,35,4.0,9.0,85,0.00,,,0.00,,2013-04-05 17:03:00,
2013-04-05 12:13:00,53.0,49.0,30.20,NE,35,4.0,9.0,85,0.00,,,0.00,,2013-04-05 17:13:00,
2013-04-05 12:23:00,53.0,47.0,30.20,ESE,104,3.0,11.0,81,0.00,,,0.00,,2013-04-05 17:23:00,
2013-04-05 12:32:00,53.0,47.0,30.20,ESE,104,3.0,11.0,81,0.00,,,0.00,,2013-04-05 17:32:00,
2013-04-05 12:45:00,53.0,47.0,30.20,ESE,104,3.0,11.0,81,0.00,,,0.00,,2013-04-05 17:45:00,
2013-04-05 12:52:00,55.0,49.0,30.19,NE,42,3.0,8.0,80,0.00,,,0.00,,2013-04-05 17:52:00,
2013-04-05 13:02:00,55.0,48.0,30.18,NW,306,2.0,7.0,76,0.00,,,0.00,,2013-04-05 18:02:00,
2013-04-05 13:12:00,55.0,48.0,30.18,NW,306,2.0,7.0,76,0.00,,,0.00,,2013-04-05 18:12:00,
2013-04-05 13:22:00,56.0,48.0,30.18,North,5,1.0,7.0,75,0.00,,,0.00,,2013-04-05 18:22:00,
2013-04-05 13:33:00,57.0,50.0,30.17,NNE,30,4.0,8.0,76,0.00,,,0.00,,2013-04-05 18:33:00,
2013-04-05 13:42:00,57.0,50.0,30.17,NNE,30,4.0,8.0,76,0.00,,,0.00,,2013-04-05 18:42:00,
2013-04-05 13:52:00,58.0,50.0,30.16,ENE,59,6.0,9.0,75,0.00,,,0.00,,2013-04-05 18:52:00,
2013-04-05 14:02:00,59.0,49.0,30.16,NNE,32,4.0,10.0,69,0.00,,,0.00,,2013-04-05 19:02:00,
2013-04-05 14:13:00,59.0,49.0,30.16,NNE,32,4.0,10.0,69,0.00,,,0.00,,2013-04-05 19:13:00,
2013-04-05 14:23:00,60.0,47.0,30.16,NNE,21,8.0,13.0,63,0.00,,,0.00,,2013-04-05 19:23:00,
2013-04-05 14:33:00,60.0,47.0,30.16,NNE,21,8.0,13.0,63,0.00,,,0.00,,2013-04-05 19:33:00,
2013-04-05 14:42:00,60.0,47.0,30.16,NNE,21,8.0,13.0,63,0.00,,,0.00,,2013-04-05 19:42:00,
2013-04-05 14:52:00,60.0,47.0,30.16,NNE,21,8.0,13.0,63,0.00,,,0.00,,2013-04-05 19:52:00,
2013-04-05 15:22:00,62.0,47.0,30.14,NNE,27,5.0,8.0,59,0.00,,,0.00,,2013-04-05 20:22:00,
2013-04-05 15:33:00,62.0,47.0,30.14,NNE,27,5.0,8.0,59,0.00,,,0.00,,2013-04-05 20:33:00,
2013-04-05 15:42:00,62.0,47.0,30.14,NNE,27,5.0,8.0,59,0.00,,,0.00,,2013-04-05 20:42:00,
2013-04-05 15:52:00,63.0,49.0,30.11,North,5,3.0,10.0,61,0.00,,,0.00,,2013-04-05 20:52:00,
2013-04-05 16:02:00,63.0,46.0,30.11,NE,53,6.0,10.0,53,0.00,,,0.00,,2013-04-05 21:02:00,
2013-04-05 16:13:00,63.0,46.0,30.11,NE,53,6.0,10.0,53,0.00,,,0.00,,2013-04-05 21:13:00,
2013-04-05 16:23:00,63.0,46.0,30.11,NE,53,6.0,10.0,53,0.00,,,0.00,,2013-04-05 21:23:00,
2013-04-05 16:33:00,64.0,44.0,30.10,North,5,2.0,8.0,48,0.00,,,0.00,,2013-04-05 21:33:00,
2013-04-05 16:43:00,64.0,44.0,30.10,North,5,2.0,8.0,48,0.00,,,0.00,,2013-04-05 21:43:00,
2013-04-05 16:55:00,64.0,43.0,30.10,NNW,336,0.0,14.0,47,0.00,,,0.00,,2013-04-05 21:55:00,
2013-04-05 17:03:00,64.0,43.0,30.10,NNW,336,0.0,14.0,47,0.00,,,0.00,,2013-04-05 22:03:00,
2013-04-05 17:13:00,64.0,43.0,30.10,NNW,336,0.0,14.0,47,0.00,,,0.00,,2013-04-05 22:13:00,
2013-04-05 17:23:00,64.0,44.0,30.10,NNE,26,5.0,10.0,49,0.00,,,0.00,,2013-04-05 22:23:00,
2013-04-05 17:33:00,64.0,43.0,30.09,NNE,32,1.0,8.0,46,0.00,,,0.00,,2013-04-05 22:33:00,
2013-04-05 17:43:00,64.0,43.0,30.09,NNE,32,1.0,8.0,46,0.00,,,0.00,,2013-04-05 22:43:00,
2013-04-05 17:52:00,64.0,44.0,30.09,NE,48,2.0,8.0,48,0.00,,,0.00,,2013-04-05 22:52:00,
2013-04-05 18:02:00,64.0,45.0,30.09,NE,38,3.0,5.0,50,0.00,,,0.00,,2013-04-05 23:02:00,
2013-04-05 18:12:00,64.0,45.0,30.09,NE,38,3.0,5.0,50,0.00,,,0.00,,2013-04-05 23:12:00,
2013-04-05 18:22:00,65.0,47.0,30.09,NE,34,5.0,6.0,52,0.00,,,0.00,,2013-04-05 23:22:00,
2013-04-05 18:32:00,64.0,46.0,30.09,NE,44,5.0,7.0,52,0.00,,,0.00,,2013-04-05 23:32:00,
2013-04-05 18:42:00,64.0,46.0,30.09,NE,44,5.0,7.0,52,0.00,,,0.00,,2013-04-05 23:42:00,
2013-04-05 18:52:00,64.0,46.0,30.09,NNE,33,4.0,9.0,52,0.00,,,0.00,,2013-04-05 23:52:00,
2013-04-05 19:02:00,64.0,47.0,30.09,NNE,19,0.0,5.0,53,0.00,,,0.00,,2013-04-06 00:02:00,
2013-04-05 19:12:00,64.0,47.0,30.09,NNE,19,0.0,5.0,53,0.00,,,0.00,,2013-04-06 00:12:00,
2013-04-05 19:23:00,64.0,47.0,30.10,NNE,19,0.0,2.0,53,0.00,,,0.00,,2013-04-06 00:23:00,
2013-04-05 19:33:00,63.0,48.0,30.09,NNE,30,2.0,5.0,59,0.00,,,0.00,,2013-04-06 00:33:00,
2013-04-05 19:42:00,63.0,48.0,30.09,NNE,30,2.0,5.0,59,0.00,,,0.00,,2013-04-06 00:42:00,
2013-04-05 19:52:00,61.0,50.0,30.09,NE,51,2.0,3.0,66,0.00,,,0.00,,2013-04-06 00:52:00,
2013-04-05 20:02:00,60.0,49.0,30.09,NE,51,1.0,3.0,67,0.00,,,0.00,,2013-04-06 01:02:00,
2013-04-05 20:12:00,60.0,49.0,30.09,NE,51,1.0,3.0,67,0.00,,,0.00,,2013-04-06 01:12:00,
2013-04-05 20:22:00,59.0,51.0,30.09,NE,51,1.0,3.0,74,0.00,,,0.00,,2013-04-06 01:22:00,
2013-04-05 20:32:00,58.0,48.0,30.10,NE,51,0.0,0.0,70,0.00,,,0.00,,2013-04-06 01:32:00,
2013-04-05 20:43:00,58.0,48.0,30.10,NE,51,0.0,0.0,70,0.00,,,0.00,,2013-04-06 01:43:00,
2013-04-05 20:52:00,58.0,47.0,30.11,NE,51,0.0,1.0,68,0.00,,,0.00,,2013-04-06 01:52:00,
2013-04-05 21:02:00,57.0,48.0,30.11,NE,51,0.0,0.0,71,0.00,,,0.00,,2013-04-06 02:02:00,
2013-04-05 21:12:00,57.0,48.0,30.11,NE,51,0.0,0.0,71,0.00,,,0.00,,2013-04-06 02:12:00,
2013-04-05 21:22:00,58.0,48.0,30.11,NE,51,0.0,0.0,69,0.00,,,0.00,,2013-04-06 02:22:00,
2013-04-05 21:32:00,55.0,50.0,30.11,NE,51,0.0,0.0,82,0.00,,,0.00,,2013-04-06 02:32:00,
2013-04-05 21:42:00,55.0,50.0,30.11,NE,51,0.0,0.0,82,0.00,,,0.00,,2013-04-06 02:42:00,
2013-04-05 21:52:00,54.0,48.0,30.11,NE,51,0.0,0.0,80,0.00,,,0.00,,2013-04-06 02:52:00,
2013-04-05 22:02:00,56.0,46.0,30.11,NE,51,0.0,1.0,69,0.00,,,0.00,,2013-04-06 03:02:00,
2013-04-05 22:11:00,53.0,48.0,30.12,ENE,61,0.0,0.0,84,0.00,,,0.00,,2013-04-06 03:11:00,
2013-04-05 22:12:00,56.0,46.0,30.11,NE,51,0.0,1.0,69,0.00,,,0.00,,2013-04-06 03:12:00,
2013-04-05 22:22:00,55.0,49.0,30.11,ENE,61,0.0,1.0,80,0.00,,,0.00,,2013-04-06 03:22:00,
2013-04-05 22:33:00,53.0,48.0,30.12,ENE,61,0.0,0.0,84,0.00,,,0.00,,2013-04-06 03:33:00,
2013-04-05 22:43:00,53.0,48.0,30.12,ENE,61,0.0,0.0,84,0.00,,,0.00,,2013-04-06 03:43:00,
2013-04-05 22:53:00,53.0,48.0,30.12,ENE,61,0.0,0.0,84,0.00,,,0.00,,2013-04-06 03:53:00,
2013-04-05 23:03:00,53.0,48.0,30.12,ENE,61,0.0,0.0,84,0.00,,,0.00,,2013-04-06 04:03:00,
2013-04-05 23:23:00,52.0,48.0,30.12,ENE,61,0.0,0.0,85,0.00,,,0.00,,2013-04-06 04:23:00,
2013-04-05 23:33:00,51.0,48.0,30.12,ENE,61,0.0,0.0,89,0.00,,,0.00,,2013-04-06 04:33:00,
2013-04-05 23:42:00,51.0,48.0,30.12,ENE,61,0.0,0.0,89,0.00,,,0.00,,2013-04-06 04:42:00,
2013-04-05 23:52:00,51.0,47.0,30.12,ENE,61,0.0,0.0,87,0.00,,,0.00,,2013-04-06 04:52:00,